Location: Yellowknife
(62.4500°N, 114.3500°W)
Time: 19:53:36
(UTC-06:00)

Amateur Radio Satellites - All Passes

Search period start: 24 April 2015 19:23
Search period end: 25 April 2015 19:23
Location: Yellowknife, 62.4500°N, 114.3500°W

Satellite Date Start Highest point End Downlink Frequencies (MHz)
Time Altitude Azimuth
Oscar 11 24 Apr 19:23:37 19:25:41 13° 37° (NE) 19:27:50 145.826/435.025
CUTE-I 24 Apr 19:25:51 19:30:58 45° 262° (W) 19:36:06 437.470
M-CUBED/EXP-1 PRIME 24 Apr 19:28:00 19:31:28 22° 94° (E) 19:34:47 437.505
CUBESAT XI-V 24 Apr 19:28:09 19:32:10 29° 91° (E) 19:36:13 437.345
MOZHAYETS 4 24 Apr 19:32:02 19:36:36 57° 296° (WNW) 19:41:07
GONETS M04 24 Apr 19:33:21 19:42:01 57° 299° (WNW) 19:50:46
Cubesat XI-IV 24 Apr 19:35:20 19:40:21 40° 264° (W) 19:45:22 437.490
SEEDS 24 Apr 19:38:29 19:41:54 24° 51° (NE) 19:45:23 437.485
DELFI C3 24 Apr 19:42:59 19:44:48 13° 39° (NE) 19:46:41 145.870
CINEMA 3 24 Apr 19:43:22 19:46:45 21° 45° (NE) 19:50:18 145.822/145.860
RS-15 24 Apr 19:44:22 19:55:30 81° 351° (N) 20:07:08 29.354- 29.394
CANX-2 24 Apr 19:44:35 19:48:21 30° 55° (NE) 19:52:08 2200.000
GOMX 1 24 Apr 19:45:35 19:49:31 34° 56° (NE) 19:53:43 467.674
CUBEBUG 2 24 Apr 19:50:40 19:53:36 17° 41° (NE) 19:56:40 437.445
BRITE-PL 24 Apr 19:52:15 19:56:19 47° 62° (ENE) 20:00:40 437.365/2234.400
DANDE 24 Apr 19:52:42 19:56:43 60° 297° (WNW) 20:02:12 436.750
CUTE 1.7 + AOD 2 24 Apr 19:53:48 19:57:37 32° 56° (NE) 20:01:29 437.475
DX 1 24 Apr 19:55:36 19:57:30 13° 34° (NE) 19:59:29 434.975-435.025
AAUSAT CUBESAT 2 24 Apr 19:58:12 20:01:41 25° 52° (NE) 20:05:12 437.432
AUBIESAT-1 24 Apr 20:11:12 20:15:22 38° 103° (ESE) 20:19:16 437.475
SO-50 24 Apr 20:11:54 20:16:45 55° 218° (SW) 20:21:37 436.795
STARS 24 Apr 20:12:06 20:14:18 13° 325° (NW) 20:16:24 437.465
UWE-3 24 Apr 20:18:32 20:21:53 21° 46° (NE) 20:25:20 435.000/436.395/437.385
DOVE 4 24 Apr 20:26:58 20:31:12 48° 62° (ENE) 20:35:44 437.250
PRISM 24 Apr 20:29:18 20:33:20 49° 101° (E) 20:37:20 437.425
FUNcube-1 24 Apr 20:31:00 20:34:20 21° 46° (NE) 20:37:46 145.935
Cosmos 2504 24 Apr 20:34:32 20:40:32 20° 1° (N) 20:46:18 435.465 / 435.565
50 SAT 24 Apr 20:34:36 20:36:00 12° 37° (NE) 20:37:28 437.505
UKube-1 24 Apr 20:38:40 20:41:41 19° 44° (NE) 20:44:46 .
STRAND 1 24 Apr 20:45:36 20:50:38 54° 101° (E) 20:55:39 437.568
COMPASS 1 24 Apr 20:49:15 20:53:25 56° 65° (ENE) 20:57:37 437.405
ZACube-1 24 Apr 20:55:17 20:59:05 28° 52° (NE) 21:02:59 437.345
Oscar 11 24 Apr 20:56:50 21:00:54 38° 59° (ENE) 21:04:59 145.826/435.025
VELOX 1 24 Apr 20:57:17 21:00:07 17° 41° (NE) 21:03:01 145.980
HO-68 24 Apr 20:58:06 21:05:21 82° 249° (WSW) 21:12:38 435.675
HUMSAT D 24 Apr 20:59:48 21:02:57 20° 47° (NE) 21:06:11 437.325/437.525
M-CUBED/EXP-1 PRIME 24 Apr 21:02:23 21:07:00 89° 133° (SE) 21:11:13 437.505
Cosmos 2499 24 Apr 21:03:01 21:11:52 69° 293° (WNW) 21:20:15 435.465 / 435.565
CUSAT 1 24 Apr 21:04:24 21:08:24 26° 321° (NW) 21:13:23 437.405
CUBESAT XI-V 24 Apr 21:05:25 21:10:02 68° 293° (WNW) 21:14:37 437.345
CUBEBUG 1 24 Apr 21:06:45 21:08:47 13° 36° (NE) 21:10:55 437.445
MOZHAYETS 4 24 Apr 21:09:52 21:13:05 19° 318° (NW) 21:16:13
CUTE-I 24 Apr 21:10:23 21:12:34 12° 285° (WNW) 21:14:34 437.470
SEEDS 24 Apr 21:12:59 21:17:18 89° 251° (WSW) 21:21:38 437.485
YUBILEINY 24 Apr 21:13:22 21:21:47 46° 53° (NE) 21:30:09 435.215
AISAT 24 Apr 21:14:09 21:17:24 21° 45° (NE) 21:20:43 437.250
DELFI C3 24 Apr 21:15:13 21:19:03 40° 60° (ENE) 21:22:54 145.870
CINEMA 3 24 Apr 21:18:50 21:23:17 69° 66° (ENE) 21:28:00 145.822/145.860
CANX-2 24 Apr 21:19:43 21:24:02 68° 256° (WSW) 21:28:22 2200.000
Cubesat XI-IV 24 Apr 21:20:59 21:22:08 10° 288° (WNW) 21:23:02 437.490
Cosmos 2491 24 Apr 21:21:56 21:26:39 17° 60° (ENE) 21:31:43 435.465 / 435.565
GOMX 1 24 Apr 21:23:16 21:27:32 57° 259° (WSW) 21:32:04 467.674
CUBEBUG 2 24 Apr 21:25:07 21:29:27 52° 63° (ENE) 21:34:00 437.445
DX 1 24 Apr 21:28:48 21:32:44 35° 56° (NE) 21:36:43 434.975-435.025
CUTE 1.7 + AOD 2 24 Apr 21:29:04 21:33:21 62° 257° (WSW) 21:37:40 437.475
BRITE-PL 24 Apr 21:31:06 21:35:03 37° 265° (W) 21:39:14 437.365/2234.400
AAUSAT CUBESAT 2 24 Apr 21:32:42 21:36:57 81° 254° (WSW) 21:41:14 437.432
GONETS M04 24 Apr 21:33:46 21:41:09 28° 329° (NNW) 21:48:30
DANDE 24 Apr 21:37:55 21:41:25 20° 327° (NNW) 21:45:37 436.750
AUBIESAT-1 24 Apr 21:45:56 21:50:22 53° 306° (NW) 21:54:27 437.475
ESTCUBE 1 24 Apr 21:49:08 21:52:39 23° 48° (NE) 21:56:14 437.505/2401.250
SO-50 24 Apr 21:53:00 21:56:33 20° 239° (WSW) 22:00:00 436.795
UWE-3 24 Apr 21:53:20 21:57:46 70° 68° (ENE) 22:02:22 435.000/436.395/437.385
RS-15 24 Apr 21:57:18 22:08:34 88° 23° (NNE) 22:20:23 29.354- 29.394
TISAT 1 24 Apr 22:04:53 22:06:35 12° 35° (NE) 22:08:22 437.305
PRISM 24 Apr 22:04:56 22:08:45 36° 303° (WNW) 22:12:31 437.425
DOVE 4 24 Apr 22:05:01 22:09:09 39° 265° (W) 22:13:31 437.250
FUNcube-1 24 Apr 22:05:39 22:10:04 72° 68° (ENE) 22:14:36 145.935
50 SAT 24 Apr 22:06:09 22:09:50 35° 58° (ENE) 22:13:34 437.505
UKube-1 24 Apr 22:12:54 22:17:11 63° 65° (ENE) 22:21:30 .
SWISSCUBE 24 Apr 22:17:14 22:17:38 10° 20° (NNE) 22:18:05 437.505
STRAND 1 24 Apr 22:25:00 22:29:50 43° 304° (NW) 22:34:39 437.568
COMPASS 1 24 Apr 22:25:31 22:29:22 32° 266° (W) 22:33:12 437.405
SPROUT 24 Apr 22:30:05 22:32:56 18° 44° (NE) 22:35:51 437.525
Cosmos 2504 24 Apr 22:30:28 22:37:27 27° 32° (NNE) 22:44:10 435.465 / 435.565
ZACube-1 24 Apr 22:30:39 22:35:06 78° 254° (WSW) 22:39:40 437.345
VELOX 1 24 Apr 22:31:38 22:35:55 53° 63° (ENE) 22:40:16 145.980
Oscar 11 24 Apr 22:32:46 22:37:02 50° 260° (W) 22:41:20 145.826/435.025
HUMSAT D 24 Apr 22:33:52 22:38:08 72° 68° (ENE) 22:42:29 437.325/437.525
M-CUBED/EXP-1 PRIME 24 Apr 22:37:29 22:41:27 28° 320° (NW) 22:45:08 437.505
CUBEBUG 1 24 Apr 22:40:11 22:44:12 38° 58° (ENE) 22:48:14 437.445
CUBESAT XI-V 24 Apr 22:43:25 22:46:51 21° 315° (NW) 22:50:13 437.345
HO-68 24 Apr 22:48:03 22:54:13 29° 273° (W) 23:00:18 435.675
ANTELSAT 24 Apr 22:48:57 22:51:30 14° 79° (E) 22:54:09 437.575/2403.000
AISAT 24 Apr 22:49:01 22:53:24 71° 67° (ENE) 22:57:50 437.250
DELFI C3 24 Apr 22:50:17 22:54:13 43° 261° (W) 22:58:09 145.870
CUSAT 1 24 Apr 22:50:25 22:53:30 15° 349° (N) 22:56:57 437.405
SEEDS 24 Apr 22:50:31 22:53:45 20° 274° (W) 22:56:54 437.485
CINEMA 3 24 Apr 22:57:04 23:00:58 28° 270° (W) 23:05:00 145.822/145.860
CANX-2 24 Apr 22:58:11 23:00:50 15° 278° (W) 23:03:24 2200.000
Cosmos 2499 24 Apr 22:59:04 23:06:41 31° 320° (NW) 23:13:53 435.465 / 435.565
CUBEBUG 2 24 Apr 23:02:11 23:06:21 37° 265° (W) 23:10:40 437.445
DX 1 24 Apr 23:04:36 23:08:53 56° 257° (WSW) 23:13:12 434.975-435.025
GOMX 1 24 Apr 23:04:42 23:06:52 13° 283° (WNW) 23:08:57 467.674
CUTE 1.7 + AOD 2 24 Apr 23:07:49 23:10:13 14° 279° (W) 23:12:30 437.475
QB50P1 24 Apr 23:09:14 23:09:57 10° 77° (ENE) 23:10:50 145.935-145.965
AAUSAT CUBESAT 2 24 Apr 23:10:18 23:13:17 18° 275° (W) 23:16:11 437.432
YUBILEINY 24 Apr 23:10:36 23:19:25 77° 260° (W) 23:28:07 435.215
Cosmos 2491 24 Apr 23:13:14 23:21:21 46° 86° (E) 23:29:35 435.465 / 435.565
ITUPSAT 1 24 Apr 23:17:53 23:20:37 15° 34° (NE) 23:23:25 437.325
AUBIESAT-1 24 Apr 23:21:02 23:24:24 20° 328° (NNW) 23:27:33 437.475
ESTCUBE 1 24 Apr 23:24:30 23:29:02 80° 69° (ENE) 23:33:34 437.505/2401.250
DANDE 24 Apr 23:24:41 23:27:09 13° 355° (N) 23:29:53 436.750
UWE-3 24 Apr 23:30:54 23:34:46 28° 270° (W) 23:38:42 435.000/436.395/437.385
QB50P2 24 Apr 23:33:33 23:36:12 16° 83° (E) 23:38:58 145.880/145.840
GONETS M04 24 Apr 23:35:21 23:41:43 21° 1° (N) 23:48:07
O/OREOS (USA 219) 24 Apr 23:36:22 23:40:15 28° 111° (ESE) 23:44:11 437.305
TISAT 1 24 Apr 23:37:33 23:41:22 35° 57° (ENE) 23:45:15 437.305
TIGRISAT 24 Apr 23:38:54 23:43:01 29° 91° (E) 23:47:09 435.000
50 SAT 24 Apr 23:40:37 23:44:34 50° 259° (W) 23:48:34 437.505
PRISM 24 Apr 23:41:29 23:43:16 12° 324° (NW) 23:44:59 437.425
UNISAT 6 24 Apr 23:42:45 23:46:57 31° 92° (E) 23:51:11 437.425
FUNcube-1 24 Apr 23:43:06 23:46:52 26° 270° (W) 23:50:41 145.935
BEESAT 24 Apr 23:48:14 23:51:41 20° 42° (NE) 23:55:12 436.000
UKube-1 24 Apr 23:49:52 23:53:41 29° 267° (W) 23:57:29 .
SWISSCUBE 24 Apr 23:50:26 23:53:59 21° 43° (NE) 23:57:36 437.505
NANOSAT C BR1 24 Apr 23:52:03 23:55:18 21° 88° (E) 23:58:36 145.865
POPSAT HIP 1 24 Apr 23:54:46 23:58:06 22° 88° (E) 00:01:30 437.405
KKS-1 25 Apr 00:00:59 00:02:01 11° 28° (NNE) 00:03:07 437.445
SPROUT 25 Apr 00:04:07 00:08:20 59° 65° (ENE) 00:12:36 437.525
STRAND 1 25 Apr 00:04:45 00:08:02 17° 326° (NW) 00:11:15 437.568
VELOX 1 25 Apr 00:08:38 00:12:43 35° 264° (W) 00:16:47 145.980
ZACube-1 25 Apr 00:09:09 00:12:17 18° 277° (W) 00:15:23 437.345
RS-15 25 Apr 00:09:42 00:20:38 58° 231° (SW) 00:32:00 29.354- 29.394
HUMSAT D 25 Apr 00:10:45 00:14:21 25° 270° (W) 00:17:56 437.325/437.525
M-CUBED/EXP-1 PRIME 25 Apr 00:12:35 00:15:08 15° 342° (NNW) 00:17:34 437.505
Oscar 11 25 Apr 00:12:41 00:14:21 12° 283° (WNW) 00:15:50 145.826/435.025
CUBEBUG 1 25 Apr 00:16:18 00:20:32 49° 260° (W) 00:24:46 437.445
POLYITAN 1 25 Apr 00:23:50 00:27:48 34° 95° (E) 00:31:47 437.675
BUGSAT 1 25 Apr 00:24:18 00:27:48 26° 92° (E) 00:31:21 437.445
ANTELSAT 25 Apr 00:24:39 00:29:22 57° 102° (ESE) 00:34:02 437.575/2403.000
Cosmos 2504 25 Apr 00:24:42 00:33:03 57° 61° (ENE) 00:40:48 435.465 / 435.565
DUCHIFAT 1 25 Apr 00:26:00 00:29:56 34° 95° (E) 00:33:53 145.980
AISAT 25 Apr 00:26:41 00:30:26 27° 269° (W) 00:34:13 437.250
CUSAT 1 25 Apr 00:35:25 00:38:59 16° 16° (NNE) 00:43:03 437.405
QB50P1 25 Apr 00:42:50 00:47:00 46° 100° (E) 00:51:09 145.935-145.965
DX 1 25 Apr 00:44:04 00:46:09 13° 279° (W) 00:48:07 434.975-435.025
ITUPSAT 1 25 Apr 00:53:02 00:57:31 40° 57° (ENE) 01:02:00 437.325
STARS 25 Apr 00:55:50 00:58:14 15° 37° (NE) 01:00:43 437.465
AUBIESAT-1 25 Apr 00:55:51 00:57:49 13° 351° (N) 00:59:42 437.475
Cosmos 2499 25 Apr 00:57:05 01:03:02 20° 350° (N) 01:08:42 435.465 / 435.565
AIST 1 25 Apr 01:01:09 01:04:33 24° 87° (E) 01:08:00
ESTCUBE 1 25 Apr 01:02:45 01:06:27 24° 271° (W) 01:10:07 437.505/2401.250
YUBILEINY 25 Apr 01:07:53 01:15:05 29° 286° (WNW) 01:22:04 435.215
QB50P2 25 Apr 01:08:36 01:12:55 71° 105° (ESE) 01:17:14 145.880/145.840
Cosmos 2491 25 Apr 01:09:09 01:17:55 73° 292° (WNW) 01:26:47 435.465 / 435.565
DANDE 25 Apr 01:09:34 01:13:05 16° 22° (NNE) 01:17:12 436.750
TISAT 1 25 Apr 01:12:58 01:17:05 52° 259° (WSW) 01:21:15 437.305
O/OREOS (USA 219) 25 Apr 01:14:45 01:19:21 80° 313° (NW) 01:23:56 437.305
TIGRISAT 25 Apr 01:15:27 01:20:12 71° 293° (WNW) 01:24:54 435.000
50 SAT 25 Apr 01:19:16 01:20:25 11° 282° (WNW) 01:21:26 437.505
UNISAT 6 25 Apr 01:19:23 01:24:07 66° 294° (WNW) 01:28:48 437.425
BEESAT 25 Apr 01:24:06 01:28:50 61° 63° (ENE) 01:33:34 436.000
SWISSCUBE 25 Apr 01:26:27 01:31:12 66° 65° (ENE) 01:35:58 437.505
NANOSAT C BR1 25 Apr 01:27:26 01:31:45 87° 283° (WNW) 01:36:03 145.865
POPSAT HIP 1 25 Apr 01:30:14 01:34:33 84° 290° (WNW) 01:38:52 437.405
KKS-1 25 Apr 01:33:42 01:37:24 27° 50° (NE) 01:41:09 437.445
GONETS M04 25 Apr 01:34:45 01:42:12 29° 33° (NNE) 01:49:45
SPROUT 25 Apr 01:40:55 01:44:44 30° 267° (W) 01:48:34 437.525
STRAND 1 25 Apr 01:45:06 01:45:28 10° 350° (N) 01:45:48 437.568
M-CUBED/EXP-1 PRIME 25 Apr 01:46:30 01:48:26 12° 5° (N) 01:50:20 437.505
CUBEBUG 1 25 Apr 01:56:34 01:58:02 11° 282° (WNW) 01:59:21 437.445
MOZHAYETS 4 25 Apr 01:57:43 01:59:12 11° 30° (NNE) 02:00:46
BUGSAT 1 25 Apr 01:59:33 02:03:38 65° 293° (WNW) 02:07:46 437.445
POLYITAN 1 25 Apr 01:59:42 02:03:55 53° 297° (WNW) 02:08:08 437.675
ANTELSAT 25 Apr 02:01:38 02:06:02 38° 303° (WNW) 02:10:23 437.575/2403.000
DUCHIFAT 1 25 Apr 02:01:47 02:05:58 52° 297° (WNW) 02:10:08 145.980
Cosmos 2504 25 Apr 02:18:30 02:26:42 58° 268° (W) 02:34:16 435.465 / 435.565
CUSAT 1 25 Apr 02:18:37 02:23:59 28° 41° (NE) 02:30:25 437.405
QB50P1 25 Apr 02:18:50 02:22:52 40° 301° (WNW) 02:26:54 145.935-145.965
RS-15 25 Apr 02:22:17 02:30:49 25° 258° (WSW) 02:39:14 29.354- 29.394
AUBIESAT-1 25 Apr 02:28:49 02:31:02 13° 14° (NNE) 02:33:15 437.475
STARS 25 Apr 02:29:37 02:33:46 42° 59° (ENE) 02:37:58 437.465
ITUPSAT 1 25 Apr 02:30:38 02:35:22 54° 258° (WSW) 02:40:06 437.325
Oscar 19 25 Apr 02:33:51 02:38:29 32° 92° (E) 02:43:09 437.125/150
AIST 1 25 Apr 02:37:33 02:41:51 73° 289° (WNW) 02:46:09
QB50P2 25 Apr 02:44:50 02:48:34 29° 306° (NW) 02:52:15 145.880/145.840
TISAT 1 25 Apr 02:52:21 02:53:56 12° 281° (W) 02:55:23 437.305
TIGRISAT 25 Apr 02:52:41 02:56:20 22° 314° (NW) 02:59:55 435.000
DANDE 25 Apr 02:52:56 02:58:22 31° 47° (NE) 03:05:03 436.750
Cosmos 2499 25 Apr 02:53:36 02:59:49 22° 21° (NNE) 03:05:48 435.465 / 435.565
O/OREOS (USA 219) 25 Apr 02:55:13 02:59:23 33° 337° (NNW) 03:03:30 437.305
UNISAT 6 25 Apr 02:56:41 03:00:14 21° 315° (NW) 03:03:44 437.425
BEESAT 25 Apr 03:02:36 03:06:59 34° 265° (W) 03:11:22 436.000
NANOSAT C BR1 25 Apr 03:03:44 03:07:09 23° 310° (NW) 03:10:31 145.865
SWISSCUBE 25 Apr 03:05:09 03:09:27 31° 267° (W) 03:13:43 437.505
POPSAT HIP 1 25 Apr 03:06:35 03:09:58 23° 311° (NW) 03:13:18 437.405
ITAMSAT 1 25 Apr 03:06:59 03:11:05 23° 87° (E) 03:15:14 435.822/435.867
Cosmos 2491 25 Apr 03:08:44 03:16:31 33° 320° (NW) 03:24:17 435.465 / 435.565
KKS-1 25 Apr 03:09:12 03:13:40 84° 252° (WSW) 03:18:11 437.445
M-CUBED/EXP-1 PRIME 25 Apr 03:18:39 03:21:51 18° 27° (NNE) 03:25:01 437.505
STRAND 1 25 Apr 03:21:22 03:22:38 11° 15° (NNE) 03:23:58 437.568
MOZHAYETS 4 25 Apr 03:31:14 03:35:11 29° 52° (NE) 03:39:11
Gurwin Techsat 1B 25 Apr 03:32:06 03:36:47 31° 91° (E) 03:41:31 435.225
GONETS M04 25 Apr 03:32:25 03:41:13 61° 62° (ENE) 03:49:59
CUBESAT XI-V 25 Apr 03:32:54 03:33:41 10° 27° (NNE) 03:34:34 437.345
BUGSAT 1 25 Apr 03:35:41 03:38:32 18° 314° (NW) 03:41:20 437.445
POLYITAN 1 25 Apr 03:36:20 03:39:06 17° 318° (NW) 03:41:47 437.675
DUCHIFAT 1 25 Apr 03:38:21 03:41:02 16° 318° (NW) 03:43:39 145.980
ANTELSAT 25 Apr 03:39:12 03:41:46 15° 325° (NW) 03:44:16 437.575/2403.000
QB50P1 25 Apr 03:55:39 03:57:50 14° 322° (NW) 03:59:57 145.935-145.965
AUBIESAT-1 25 Apr 04:00:48 04:04:34 24° 36° (NE) 04:08:16 437.475
CUSAT 1 25 Apr 04:01:21 04:07:55 63° 64° (ENE) 04:15:54 437.405
AO-7 25 Apr 04:01:26 04:07:02 20° 77° (ENE) 04:12:53 29.400- 29.500
STARS 25 Apr 04:05:59 04:10:14 46° 260° (W) 04:14:33 437.465
ITUPSAT 1 25 Apr 04:11:53 04:14:25 14° 281° (W) 04:16:47 437.325
Cosmos 2504 25 Apr 04:12:40 04:18:27 21° 294° (WNW) 04:23:46 435.465 / 435.565
Oscar 19 25 Apr 04:13:06 04:18:20 72° 295° (WNW) 04:23:32 437.125/150
AIST 1 25 Apr 04:17:10 04:20:18 19° 311° (NW) 04:23:23
QB50P2 25 Apr 04:22:15 04:23:19 11° 329° (NNW) 04:24:18 145.880/145.840
PRISM 25 Apr 04:22:45 04:24:20 12° 35° (NE) 04:26:00 437.425
JAS-2 25 Apr 04:28:17 04:33:43 25° 80° (E) 04:38:46 435.910
BEESAT 3 25 Apr 04:32:19 04:35:38 24° 127° (SE) 04:39:00 437.485
BEESAT 2 25 Apr 04:32:58 04:36:09 22° 126° (SE) 04:39:25 435.950
DANDE 25 Apr 04:36:07 04:42:31 76° 68° (ENE) 04:50:35 436.750
O/OREOS (USA 219) 25 Apr 04:36:09 04:39:58 25° 2° (N) 04:43:45 437.305
ITAMSAT 1 25 Apr 04:46:08 04:51:22 86° 110° (ESE) 04:56:35 435.822/435.867
KKS-1 25 Apr 04:47:44 04:51:02 20° 274° (W) 04:54:16 437.445
Cosmos 2499 25 Apr 04:47:52 04:55:39 42° 51° (NE) 05:02:53 435.465 / 435.565
M-CUBED/EXP-1 PRIME 25 Apr 04:51:17 04:55:48 41° 48° (NE) 05:00:14 437.505
STRAND 1 25 Apr 04:56:32 05:00:13 21° 39° (NE) 05:03:58 437.568
CUBESAT XI-V 25 Apr 05:06:02 05:09:48 25° 50° (NE) 05:13:36 437.345
MOZHAYETS 4 25 Apr 05:07:25 05:12:06 80° 255° (WSW) 05:16:46
Cosmos 2491 25 Apr 05:10:23 05:16:48 21° 352° (N) 05:23:11 435.465 / 435.565
HORYU 2 25 Apr 05:10:39 05:14:58 42° 98° (E) 05:19:16 437.375
Gurwin Techsat 1B 25 Apr 05:11:58 05:17:19 75° 294° (WNW) 05:22:38 435.225
AIST 2 25 Apr 05:28:58 05:32:30 25° 128° (SE) 05:36:04 435.215
GONETS M04 25 Apr 05:29:37 05:38:13 57° 269° (W) 05:46:46
AUBIESAT-1 25 Apr 05:33:59 05:38:45 63° 56° (NE) 05:43:24 437.475
CUSAT 1 25 Apr 05:44:12 05:50:43 52° 264° (W) 05:58:26 437.405
STARS 25 Apr 05:46:44 05:47:55 11° 283° (WNW) 05:48:56 437.465
Oscar 19 25 Apr 05:52:52 05:57:04 25° 316° (NW) 06:01:13 437.125/150
AO-7 25 Apr 05:53:51 06:02:02 55° 103° (ESE) 06:10:12 29.400- 29.500
PRISM 25 Apr 05:55:02 05:58:49 34° 57° (ENE) 06:02:37 437.425
Cubesat XI-IV 25 Apr 06:03:06 06:03:54 10° 72° (ENE) 06:04:56 437.490
BEESAT 3 25 Apr 06:09:02 06:13:10 72° 149° (SSE) 06:17:19 437.485
BEESAT 2 25 Apr 06:09:36 06:13:44 67° 147° (SSE) 06:17:54 435.950
JAS-2 25 Apr 06:13:06 06:20:07 77° 106° (ESE) 06:26:14 435.910
O/OREOS (USA 219) 25 Apr 06:16:18 06:20:31 35° 27° (NNE) 06:24:42 437.305
DANDE 25 Apr 06:19:34 06:25:39 41° 267° (W) 06:32:57 436.750
M-CUBED/EXP-1 PRIME 25 Apr 06:25:42 06:30:32 62° 249° (WSW) 06:35:17 437.505
ITAMSAT 1 25 Apr 06:25:59 06:30:30 31° 312° (NW) 06:34:58 435.822/435.867
STRAND 1 25 Apr 06:33:37 06:38:37 57° 62° (ENE) 06:43:40 437.568
Cosmos 2499 25 Apr 06:41:25 06:49:40 79° 258° (WSW) 06:57:12 435.465 / 435.565
CUBESAT XI-V 25 Apr 06:42:10 06:46:48 89° 83° (E) 06:51:28 437.345
MOZHAYETS 4 25 Apr 06:46:41 06:50:06 19° 276° (W) 06:53:25
HORYU 2 25 Apr 06:47:22 06:51:43 47° 300° (WNW) 06:56:03 437.375
Gurwin Techsat 1B 25 Apr 06:52:20 06:56:42 26° 316° (NW) 07:01:00 435.225
AIST 2 25 Apr 07:06:19 07:10:37 74° 149° (SSE) 07:14:56 435.215
AUBIESAT-1 25 Apr 07:09:18 07:13:47 36° 257° (WSW) 07:18:08 437.475
Cosmos 2491 25 Apr 07:10:33 07:17:29 25° 24° (NNE) 07:24:32 435.465 / 435.565
GONETS M04 25 Apr 07:27:08 07:33:19 21° 294° (WNW) 07:39:15
CUSAT 1 25 Apr 07:27:51 07:32:25 18° 284° (WNW) 07:37:13 437.405
PRISM 25 Apr 07:30:06 07:34:12 53° 258° (WSW) 07:38:18 437.425
CUTE-I 25 Apr 07:31:14 07:36:06 35° 94° (E) 07:40:58 437.470
Oscar 19 25 Apr 07:32:52 07:34:55 12° 340° (NNW) 07:36:54 437.125/150
TIGRISAT 25 Apr 07:40:12 07:41:08 11° 25° (NNE) 07:42:08 435.000
Cubesat XI-IV 25 Apr 07:40:40 07:45:40 39° 96° (E) 07:50:41 437.490
UNISAT 6 25 Apr 07:43:51 07:45:06 11° 27° (NNE) 07:46:26 437.425
AO-7 25 Apr 07:46:57 07:55:10 65° 308° (NW) 08:03:22 29.400- 29.500
BEESAT 3 25 Apr 07:47:10 07:51:18 64° 351° (N) 07:55:27 437.485
BEESAT 2 25 Apr 07:47:47 07:51:58 66° 350° (N) 07:56:07 435.950
O/OREOS (USA 219) 25 Apr 07:55:51 08:00:25 87° 230° (SW) 08:04:56 437.305
JAS-2 25 Apr 07:58:21 08:04:51 41° 311° (NW) 08:10:37 435.910
M-CUBED/EXP-1 PRIME 25 Apr 08:03:07 08:06:16 17° 270° (W) 08:09:17 437.505
DANDE 25 Apr 08:04:21 08:07:40 14° 287° (WNW) 08:10:58 436.750
ITAMSAT 1 25 Apr 08:06:04 08:08:41 14° 335° (NNW) 08:11:14 435.822/435.867
STRAND 1 25 Apr 08:13:17 08:18:05 40° 263° (W) 08:22:54 437.568
HO-68 25 Apr 08:15:07 08:18:03 13° 69° (ENE) 08:21:17 435.675
CUBESAT XI-V 25 Apr 08:21:15 08:24:55 22° 273° (W) 08:28:30 437.345
ANTELSAT 25 Apr 08:23:50 08:26:31 16° 37° (NE) 08:29:18 437.575/2403.000
HORYU 2 25 Apr 08:24:42 08:27:31 16° 322° (NW) 08:30:15 437.375
Gurwin Techsat 1B 25 Apr 08:32:51 08:35:10 13° 340° (NNW) 08:37:26 435.225
Cosmos 2499 25 Apr 08:35:05 08:41:45 28° 285° (WNW) 08:47:52 435.465 / 435.565
QB50P1 25 Apr 08:38:35 08:39:58 12° 33° (NNE) 08:41:27 145.935-145.965
YUBILEINY 25 Apr 08:42:10 08:43:31 11° 49° (NE) 08:45:15 435.215
AIST 2 25 Apr 08:45:04 08:49:22 65° 352° (N) 08:53:39 435.215
CANX-2 25 Apr 08:55:23 08:57:18 13° 79° (E) 08:59:21 2200.000
QB50P2 25 Apr 09:03:10 09:05:33 15° 40° (NE) 09:08:00 145.880/145.840
CUTE 1.7 + AOD 2 25 Apr 09:04:24 09:06:36 14° 80° (E) 09:08:56 437.475
CINEMA 3 25 Apr 09:04:41 09:05:32 10° 73° (ENE) 09:06:37 145.822/145.860
Cosmos 2491 25 Apr 09:08:34 09:17:02 47° 54° (NE) 09:25:33 435.465 / 435.565
PRISM 25 Apr 09:09:05 09:10:42 12° 280° (W) 09:12:09 437.425
CUTE-I 25 Apr 09:11:18 09:16:36 67° 296° (WNW) 09:21:54 437.470
TIGRISAT 25 Apr 09:12:47 09:16:29 25° 48° (NE) 09:20:18 435.000
GOMX 1 25 Apr 09:13:19 09:17:16 24° 87° (E) 09:21:29 467.674
UNISAT 6 25 Apr 09:16:43 09:20:32 26° 49° (NE) 09:24:27 437.425
Cubesat XI-IV 25 Apr 09:20:49 09:26:05 60° 299° (WNW) 09:31:19 437.490
NANOSAT C BR1 25 Apr 09:21:04 09:23:52 18° 44° (NE) 09:26:44 145.865
BRITE-PL 25 Apr 09:23:13 09:27:39 34° 94° (E) 09:32:24 437.365/2234.400
POPSAT HIP 1 25 Apr 09:23:55 09:26:48 18° 44° (NE) 09:29:46 437.405
BEESAT 3 25 Apr 09:25:29 09:29:39 71° 15° (NNE) 09:33:47 437.485
BEESAT 2 25 Apr 09:26:13 09:30:24 69° 13° (NNE) 09:34:33 435.950
PCSat 25 Apr 09:31:08 09:35:27 25° 117° (ESE) 09:39:51 145.827
O/OREOS (USA 219) 25 Apr 09:35:46 09:39:21 23° 252° (WSW) 09:42:51 437.305
AO-7 25 Apr 09:39:40 09:46:55 35° 334° (NNW) 09:54:08 29.400- 29.500
JAS-2 25 Apr 09:43:16 09:48:22 21° 337° (NNW) 09:53:01 435.910
BUGSAT 1 25 Apr 09:50:55 09:53:50 20° 47° (NE) 09:56:49 437.445
DOVE 4 25 Apr 09:51:57 09:56:23 32° 92° (E) 10:01:01 437.250
POLYITAN 1 25 Apr 09:52:36 09:56:06 26° 51° (NE) 09:59:40 437.675
DUCHIFAT 1 25 Apr 09:54:13 09:57:41 25° 51° (NE) 10:01:12 145.980
COMPASS 1 25 Apr 09:57:42 10:01:12 24° 89° (E) 10:04:43 437.405
ANTELSAT 25 Apr 09:57:58 10:02:20 42° 59° (ENE) 10:06:48 437.575/2403.000
STRAND 1 25 Apr 09:58:13 09:58:53 10° 287° (WNW) 09:59:19 437.568
HO-68 25 Apr 10:01:22 10:08:08 41° 95° (E) 10:14:53 435.675
ZACube-1 25 Apr 10:09:31 10:11:39 13° 78° (ENE) 10:13:56 437.345
Oscar 11 25 Apr 10:09:35 10:12:29 17° 84° (E) 10:15:27 145.826/435.025
QB50P1 25 Apr 10:11:01 10:14:46 32° 55° (NE) 10:18:35 145.935-145.965
Gurwin Techsat 1B 25 Apr 10:12:12 10:13:07 10° 5° (N) 10:14:02 435.225
DELFI C3 25 Apr 10:19:25 10:21:52 16° 83° (E) 10:24:26 145.870
SEEDS 25 Apr 10:22:19 10:26:23 41° 97° (E) 10:30:26 437.485
AIST 2 25 Apr 10:23:58 10:28:17 72° 15° (NNE) 10:32:34 435.215
CANX-2 25 Apr 10:29:59 10:34:15 56° 102° (ESE) 10:38:30 2200.000
YUBILEINY 25 Apr 10:30:08 10:37:24 31° 76° (ENE) 10:44:49 435.215
QB50P2 25 Apr 10:36:33 10:40:37 46° 61° (ENE) 10:44:44 145.880/145.840
CUTE 1.7 + AOD 2 25 Apr 10:39:11 10:43:29 61° 103° (ESE) 10:47:44 437.475
CINEMA 3 25 Apr 10:39:30 10:44:08 41° 96° (E) 10:48:53 145.822/145.860
AAUSAT CUBESAT 2 25 Apr 10:40:29 10:44:33 43° 98° (E) 10:48:35 437.432
CUBEBUG 2 25 Apr 10:41:44 10:45:50 28° 90° (E) 10:49:59 437.445
DX 1 25 Apr 10:42:54 10:45:08 14° 82° (E) 10:47:30 434.975-435.025
Oscar 19 25 Apr 10:46:47 10:49:41 15° 29° (NNE) 10:52:41 437.125/150
TIGRISAT 25 Apr 10:48:06 10:52:43 83° 70° (ENE) 10:57:28 435.000
GOMX 1 25 Apr 10:51:06 10:56:02 89° 108° (ESE) 11:01:18 467.674
CUTE-I 25 Apr 10:51:47 10:56:01 24° 318° (NW) 11:00:10 437.470
UNISAT 6 25 Apr 10:52:14 10:56:51 89° 88° (E) 11:01:37 437.425
NANOSAT C BR1 25 Apr 10:54:52 10:59:02 59° 65° (ENE) 11:03:16 145.865
AIST 1 25 Apr 10:55:49 10:59:23 25° 54° (NE) 11:02:58
POPSAT HIP 1 25 Apr 10:57:51 11:02:02 63° 66° (ENE) 11:06:17 437.405
Cubesat XI-IV 25 Apr 11:01:22 11:05:25 22° 321° (NW) 11:09:24 437.490
BRITE-PL 25 Apr 11:01:44 11:06:29 63° 294° (WNW) 11:11:37 437.365/2234.400
BEESAT 3 25 Apr 11:03:36 11:07:40 54° 217° (SW) 11:11:40 437.485
BEESAT 2 25 Apr 11:04:26 11:08:33 59° 216° (SW) 11:12:37 435.950
Cosmos 2491 25 Apr 11:05:49 11:14:39 75° 261° (W) 11:23:27 435.465 / 435.565
50 SAT 25 Apr 11:08:01 11:09:49 13° 81° (E) 11:11:46 437.505
UWE-3 25 Apr 11:08:42 11:13:03 36° 94° (E) 11:17:25 435.000/436.395/437.385
PCSat 25 Apr 11:12:49 11:18:13 72° 140° (SE) 11:23:40 145.827
FUNcube-1 25 Apr 11:19:23 11:23:39 36° 95° (E) 11:27:56 145.935
ITAMSAT 1 25 Apr 11:21:19 11:23:48 14° 24° (NNE) 11:26:21 435.822/435.867
BUGSAT 1 25 Apr 11:24:46 11:28:47 76° 69° (ENE) 11:32:53 437.445
UKube-1 25 Apr 11:25:49 11:29:26 25° 91° (E) 11:33:06 .
JAS-2 25 Apr 11:26:48 11:31:11 17° 3° (N) 11:35:21 435.910
POLYITAN 1 25 Apr 11:27:23 11:31:40 82° 255° (WSW) 11:35:59 437.675
DUCHIFAT 1 25 Apr 11:28:55 11:33:09 82° 252° (WSW) 11:37:26 145.980
DOVE 4 25 Apr 11:29:37 11:34:32 70° 292° (WNW) 11:39:41 437.250
Cosmos 2504 25 Apr 11:31:01 11:33:34 12° 53° (NE) 11:36:28 435.465 / 435.565
AO-7 25 Apr 11:31:10 11:37:47 28° 1° (N) 11:44:26 29.400- 29.500
COMPASS 1 25 Apr 11:33:06 11:37:21 73° 291° (WNW) 11:41:33 437.405
ANTELSAT 25 Apr 11:34:37 11:39:07 49° 261° (W) 11:43:43 437.575/2403.000
HUMSAT D 25 Apr 11:42:54 11:46:50 32° 93° (E) 11:50:47 437.325/437.525
ZACube-1 25 Apr 11:44:34 11:49:07 53° 101° (E) 11:53:39 437.345
Oscar 11 25 Apr 11:45:03 11:49:27 76° 106° (ESE) 11:53:48 145.826/435.025
QB50P1 25 Apr 11:46:16 11:50:29 61° 257° (WSW) 11:54:44 145.935-145.965
VELOX 1 25 Apr 11:47:50 11:51:26 24° 90° (E) 11:55:04 145.980
Gurwin Techsat 1B 25 Apr 11:48:06 11:51:11 16° 29° (NNE) 11:54:21 435.225
HO-68 25 Apr 11:49:15 11:56:28 75° 299° (WNW) 12:03:39 435.675
DELFI C3 25 Apr 11:53:41 11:57:47 74° 105° (ESE) 12:01:50 145.870
CUBEBUG 1 25 Apr 11:54:36 11:57:26 17° 84° (E) 12:00:23 437.445
SEEDS 25 Apr 11:58:10 12:02:16 44° 299° (WNW) 12:06:19 437.485
AIST 2 25 Apr 12:02:39 12:06:52 53° 218° (SW) 12:10:59 435.215
AISAT 25 Apr 12:05:25 12:09:25 32° 94° (E) 12:13:26 437.250
CANX-2 25 Apr 12:06:08 12:10:03 34° 303° (WNW) 12:13:56 2200.000
QB50P2 25 Apr 12:12:37 12:16:37 39° 263° (W) 12:20:40 145.880/145.840
CUTE 1.7 + AOD 2 25 Apr 12:15:22 12:19:13 32° 304° (NW) 12:23:02 437.475
AAUSAT CUBESAT 2 25 Apr 12:16:12 12:20:12 41° 300° (WNW) 12:24:09 437.432
CINEMA 3 25 Apr 12:16:44 12:21:30 54° 297° (WNW) 12:26:23 145.822/145.860
DX 1 25 Apr 12:18:01 12:22:21 60° 104° (ESE) 12:26:41 434.975-435.025
CUBEBUG 2 25 Apr 12:18:13 12:22:58 74° 292° (WNW) 12:27:46 437.445
SO-50 25 Apr 12:18:54 12:20:54 13° 114° (ESE) 12:23:03 436.795
Oscar 19 25 Apr 12:23:11 12:27:51 36° 52° (NE) 12:32:35 437.125/150
YUBILEINY 25 Apr 12:24:23 12:33:13 81° 101° (E) 12:42:04 435.215
TIGRISAT 25 Apr 12:26:17 12:30:04 24° 272° (W) 12:33:52 435.000
GOMX 1 25 Apr 12:29:40 12:33:48 28° 309° (NW) 12:38:07 467.674
UNISAT 6 25 Apr 12:30:38 12:34:18 22° 273° (W) 12:37:59 437.425
NANOSAT C BR1 25 Apr 12:31:26 12:35:11 30° 267° (W) 12:38:57 145.865
CUTE-I 25 Apr 12:32:21 12:34:31 12° 342° (NNW) 12:36:38 437.470
AIST 1 25 Apr 12:33:15 12:37:33 77° 257° (WSW) 12:41:49
POPSAT HIP 1 25 Apr 12:34:33 12:38:17 28° 268° (W) 12:41:59 437.405
BRITE-PL 25 Apr 12:40:52 12:44:24 21° 315° (NW) 12:48:03 437.365/2234.400
50 SAT 25 Apr 12:41:30 12:45:33 59° 103° (ESE) 12:49:34 437.505
Cubesat XI-IV 25 Apr 12:41:55 12:43:53 12° 345° (NNW) 12:45:48 437.490
BEESAT 3 25 Apr 12:42:16 12:44:59 17° 238° (WSW) 12:47:36 437.485
ESTCUBE 1 25 Apr 12:43:05 12:47:20 39° 97° (E) 12:51:33 437.505/2401.250
BEESAT 2 25 Apr 12:43:05 12:46:02 19° 237° (WSW) 12:48:53 435.950
UWE-3 25 Apr 12:45:13 12:49:49 56° 296° (WNW) 12:54:26 435.000/436.395/437.385
TISAT 1 25 Apr 12:47:23 12:49:41 14° 82° (E) 12:52:06 437.305
FUNcube-1 25 Apr 12:55:41 13:00:12 55° 296° (WNW) 13:04:42 145.935
PCSat 25 Apr 12:56:28 13:01:53 61° 343° (NNW) 13:07:18 145.827
ITAMSAT 1 25 Apr 12:57:33 13:01:58 30° 48° (NE) 13:06:27 435.822/435.867
BUGSAT 1 25 Apr 13:01:33 13:04:46 22° 271° (W) 13:07:57 437.445
UKube-1 25 Apr 13:01:41 13:06:02 73° 293° (WNW) 13:10:22 .
Cosmos 2491 25 Apr 13:03:09 13:10:19 28° 287° (WNW) 13:17:18 435.465 / 435.565
POLYITAN 1 25 Apr 13:05:17 13:08:17 18° 275° (W) 13:11:14 437.675
DUCHIFAT 1 25 Apr 13:06:43 13:09:41 18° 275° (W) 13:12:35 145.980
DOVE 4 25 Apr 13:07:53 13:11:42 23° 313° (NW) 13:15:35 437.250
JAS-2 25 Apr 13:08:30 13:14:05 23° 28° (NNE) 13:19:25 435.910
COMPASS 1 25 Apr 13:09:21 13:12:28 20° 313° (NW) 13:15:31 437.405
HORYU 2 25 Apr 13:09:57 13:12:03 13° 33° (NNE) 13:14:14 437.375
ANTELSAT 25 Apr 13:15:10 13:17:08 12° 284° (WNW) 13:18:57 437.575/2403.000
SPROUT 25 Apr 13:16:00 13:19:41 27° 91° (E) 13:23:24 437.525
Cosmos 2504 25 Apr 13:16:55 13:24:26 34° 79° (ENE) 13:31:53 435.465 / 435.565
HUMSAT D 25 Apr 13:18:33 13:22:52 57° 295° (WNW) 13:27:08 437.325/437.525
ZACube-1 25 Apr 13:21:06 13:25:24 39° 302° (WNW) 13:29:41 437.345
AO-7 25 Apr 13:21:27 13:28:41 36° 28° (NNE) 13:36:00 29.400- 29.500
Oscar 11 25 Apr 13:21:34 13:25:19 28° 307° (NW) 13:29:00 145.826/435.025
VELOX 1 25 Apr 13:24:04 13:28:32 79° 291° (WNW) 13:32:58 145.980
QB50P1 25 Apr 13:25:04 13:27:18 14° 279° (W) 13:29:25 145.935-145.965
Gurwin Techsat 1B 25 Apr 13:25:09 13:29:58 37° 53° (NE) 13:34:50 435.225
DELFI C3 25 Apr 13:29:12 13:32:37 26° 307° (NW) 13:35:59 145.870
CUBEBUG 1 25 Apr 13:30:14 13:34:36 75° 106° (ESE) 13:38:58 437.445
SEEDS 25 Apr 13:34:52 13:37:12 14° 320° (NW) 13:39:27 437.485
HO-68 25 Apr 13:37:08 13:43:28 34° 323° (NW) 13:49:42 435.675
AISAT 25 Apr 13:41:54 13:46:18 60° 296° (WNW) 13:50:42 437.250
AIST 2 25 Apr 13:41:56 13:44:43 17° 239° (WSW) 13:47:23 435.215
CANX-2 25 Apr 13:43:13 13:44:57 12° 325° (NW) 13:46:35 2200.000
CUTE 1.7 + AOD 2 25 Apr 13:52:35 13:54:03 11° 326° (NW) 13:55:27 437.475
AAUSAT CUBESAT 2 25 Apr 13:52:49 13:54:55 13° 321° (NW) 13:56:56 437.432
DX 1 25 Apr 13:54:31 13:58:28 33° 305° (NW) 14:02:22 434.975-435.025
CINEMA 3 25 Apr 13:54:33 13:57:55 19° 318° (NW) 14:01:16 145.822/145.860
CUBEBUG 2 25 Apr 13:55:24 13:59:05 23° 313° (NW) 14:02:46 437.445
SO-50 25 Apr 13:55:53 14:00:22 41° 135° (SE) 14:04:58 436.795
Oscar 19 25 Apr 14:01:48 14:06:59 71° 254° (WSW) 14:12:13 437.125/150
GOMX 1 25 Apr 14:08:56 14:10:40 12° 331° (NNW) 14:12:20 467.674
CUTE-I 25 Apr 14:11:16 14:12:34 11° 7° (N) 14:13:54 437.470
AIST 1 25 Apr 14:11:51 14:14:35 16° 278° (W) 14:17:13
50 SAT 25 Apr 14:16:34 14:20:11 31° 304° (NW) 14:23:46 437.505
ESTCUBE 1 25 Apr 14:20:00 14:24:22 50° 298° (WNW) 14:28:42 437.505/2401.250
ITUPSAT 1 25 Apr 14:20:25 14:23:56 20° 86° (E) 14:27:32 437.325
Cubesat XI-IV 25 Apr 14:20:26 14:21:56 11° 10° (N) 14:23:28 437.490
TISAT 1 25 Apr 14:22:07 14:26:22 64° 104° (ESE) 14:30:36 437.305
UWE-3 25 Apr 14:22:21 14:25:35 19° 317° (NW) 14:28:47 435.000/436.395/437.385
YUBILEINY 25 Apr 14:22:34 14:30:58 44° 308° (NW) 14:39:18 435.215
FUNcube-1 25 Apr 14:32:39 14:35:46 18° 317° (NW) 14:38:50 145.935
ITAMSAT 1 25 Apr 14:35:51 14:41:03 89° 239° (WSW) 14:46:18 435.822/435.867
UKube-1 25 Apr 14:38:21 14:41:37 21° 314° (NW) 14:44:50 .
PCSat 25 Apr 14:40:36 14:45:58 55° 8° (N) 14:51:20 145.827
HORYU 2 25 Apr 14:43:34 14:47:38 35° 55° (NE) 14:51:46 437.375
DOVE 4 25 Apr 14:47:26 14:48:00 10° 336° (NNW) 14:48:29 437.250
RS-15 25 Apr 14:48:04 14:56:37 29° 107° (ESE) 15:05:38 29.354- 29.394
JAS-2 25 Apr 14:50:32 14:57:46 45° 52° (NE) 15:04:33 435.910
BEESAT 25 Apr 14:51:06 14:55:22 32° 93° (E) 14:59:40 436.000
KKS-1 25 Apr 14:51:31 14:52:22 11° 76° (ENE) 14:53:24 437.445
SPROUT 25 Apr 14:51:51 14:56:11 69° 293° (WNW) 15:00:30 437.525
SWISSCUBE 25 Apr 14:53:33 14:57:56 34° 95° (E) 15:02:18 437.505
HUMSAT D 25 Apr 14:54:59 14:57:55 18° 316° (NW) 15:00:46 437.325/437.525
GONETS M04 25 Apr 14:57:03 15:01:23 15° 58° (ENE) 15:06:05
ZACube-1 25 Apr 14:58:19 15:00:46 14° 323° (NW) 15:03:08 437.345
Oscar 11 25 Apr 14:59:22 15:00:17 11° 330° (NNW) 15:01:08 145.826/435.025
VELOX 1 25 Apr 15:01:06 15:04:35 23° 313° (NW) 15:08:01 145.980
Gurwin Techsat 1B 25 Apr 15:04:25 15:09:44 70° 254° (WSW) 15:15:06 435.225
CUBEBUG 1 25 Apr 15:06:57 15:10:41 28° 307° (NW) 15:14:23 437.445
Cosmos 2504 25 Apr 15:08:08 15:17:04 85° 101° (ESE) 15:25:42 435.465 / 435.565
AO-7 25 Apr 15:12:20 15:20:30 68° 54° (NE) 15:28:45 29.400- 29.500
AISAT 25 Apr 15:19:06 15:22:13 19° 317° (NW) 15:25:17 437.250
HO-68 25 Apr 15:24:17 15:29:27 22° 349° (N) 15:34:36 435.675
DX 1 25 Apr 15:31:48 15:33:39 12° 327° (NNW) 15:35:26 434.975-435.025
SO-50 25 Apr 15:35:49 15:40:40 88° 340° (NNW) 15:45:39 436.795
Oscar 19 25 Apr 15:43:37 15:47:20 19° 277° (W) 15:50:58 437.125/150
STARS 25 Apr 15:45:01 15:48:06 18° 85° (E) 15:51:16 437.465
CUTE-I 25 Apr 15:47:26 15:50:49 18° 32° (NNE) 15:54:16 437.470
50 SAT 25 Apr 15:53:01 15:53:57 11° 325° (NW) 15:54:48 437.505
Cubesat XI-IV 25 Apr 15:56:40 16:00:16 19° 34° (NE) 16:03:56 437.490
ESTCUBE 1 25 Apr 15:57:34 16:00:25 17° 320° (NW) 16:03:12 437.505/2401.250
ITUPSAT 1 25 Apr 15:57:48 16:02:38 82° 108° (ESE) 16:07:24 437.325
TISAT 1 25 Apr 15:58:12 16:01:57 31° 305° (NW) 16:05:41 437.305
ISS 25 Apr 16:10:26 16:12:02 13° 178° (S) 16:13:38 145.825
ITAMSAT 1 25 Apr 16:17:04 16:21:19 24° 272° (W) 16:25:29 435.822/435.867
HORYU 2 25 Apr 16:19:40 16:24:09 60° 256° (WSW) 16:28:40 437.375
YUBILEINY 25 Apr 16:23:45 16:30:38 24° 339° (NNW) 16:37:24 435.215
PCSat 25 Apr 16:24:22 16:29:51 87° 37° (NE) 16:35:19 145.827
KKS-1 25 Apr 16:25:55 16:30:15 45° 99° (E) 16:34:35 437.445
SPROUT 25 Apr 16:28:31 16:31:41 20° 314° (NW) 16:34:47 437.525
BEESAT 25 Apr 16:28:51 16:33:37 65° 295° (WNW) 16:38:20 436.000
SWISSCUBE 25 Apr 16:31:22 16:36:06 60° 297° (WNW) 16:40:47 437.505
JAS-2 25 Apr 16:34:41 16:42:33 78° 253° (WSW) 16:49:54 435.910
CUBEBUG 1 25 Apr 16:44:49 16:45:52 11° 330° (NNW) 16:46:49 437.445
Gurwin Techsat 1B 25 Apr 16:46:55 16:50:45 19° 277° (W) 16:54:30 435.225
GONETS M04 25 Apr 16:47:53 16:55:54 42° 84° (E) 17:04:04
MOZHAYETS 4 25 Apr 16:52:36 16:54:57 14° 79° (E) 16:57:25
RS-15 25 Apr 16:56:20 17:07:02 65° 134° (SE) 17:18:11 29.354- 29.394
Cosmos 2504 25 Apr 17:03:06 17:11:28 42° 309° (NW) 17:19:29 435.465 / 435.565
AO-7 25 Apr 17:05:39 17:13:44 53° 258° (WSW) 17:21:51 29.400- 29.500
HO-68 25 Apr 17:09:49 17:15:05 23° 16° (NNE) 17:20:25 435.675
SO-50 25 Apr 17:16:37 17:21:30 69° 1° (N) 17:26:29 436.795
STARS 25 Apr 17:20:50 17:25:19 79° 106° (ESE) 17:29:49 437.465
CUSAT 1 25 Apr 17:23:21 17:26:53 23° 81° (E) 17:31:20 437.405
CUTE-I 25 Apr 17:24:51 17:29:49 42° 55° (NE) 17:34:50 437.470
BRITE-PL 25 Apr 17:33:27 17:34:27 11° 28° (NNE) 17:35:31 437.365/2234.400
Cubesat XI-IV 25 Apr 17:34:19 17:39:23 47° 57° (ENE) 17:44:30 437.490
TISAT 1 25 Apr 17:35:21 17:36:39 11° 327° (NNW) 17:37:52 437.305
ITUPSAT 1 25 Apr 17:36:03 17:40:11 29° 310° (NW) 17:44:15 437.325
Cosmos 2499 25 Apr 17:40:07 17:46:22 23° 70° (ENE) 17:52:36 435.465 / 435.565
ISS 25 Apr 17:46:56 17:47:24 10° 197° (SSW) 17:47:51 145.825
DOVE 4 25 Apr 17:58:31 17:59:28 11° 25° (NNE) 18:00:29 437.250
HORYU 2 25 Apr 17:59:16 18:01:48 14° 279° (W) 18:04:13 437.375
DANDE 25 Apr 18:01:51 18:05:28 31° 87° (E) 18:10:12 436.750
KKS-1 25 Apr 18:02:40 18:06:58 44° 300° (WNW) 18:11:13 437.445
BEESAT 25 Apr 18:07:12 18:10:48 21° 317° (NW) 18:14:19 436.000
PCSat 25 Apr 18:07:58 18:12:57 37° 236° (SW) 18:17:52 145.827
SWISSCUBE 25 Apr 18:09:46 18:13:14 20° 319° (NW) 18:16:39 437.505
SEEDS 25 Apr 18:18:30 18:19:03 10° 32° (NNE) 18:19:41 437.485
JAS-2 25 Apr 18:22:04 18:28:42 29° 277° (W) 18:34:53 435.910
YUBILEINY 25 Apr 18:24:53 18:31:18 22° 11° (N) 18:37:46 435.215
CANX-2 25 Apr 18:25:21 18:27:08 12° 36° (NE) 18:29:00 2200.000
MOZHAYETS 4 25 Apr 18:28:41 18:33:15 57° 101° (E) 18:37:48
CUBESAT XI-V 25 Apr 18:29:14 18:31:02 12° 77° (ENE) 18:32:57 437.345
CUTE 1.7 + AOD 2 25 Apr 18:34:15 18:36:13 13° 37° (NE) 18:38:16 437.475
AAUSAT CUBESAT 2 25 Apr 18:35:37 18:36:13 10° 32° (NNE) 18:36:55 437.432
CINEMA 3 25 Apr 18:42:05 18:43:52 12° 30° (NNE) 18:45:45 145.822/145.860
GONETS M04 25 Apr 18:43:28 18:52:19 78° 289° (WNW) 19:01:15
HO-68 25 Apr 18:54:45 19:01:13 38° 41° (NE) 19:07:45 435.675
GOMX 1 25 Apr 18:56:14 18:59:27 20° 44° (NE) 19:02:51 467.674
SO-50 25 Apr 18:57:21 19:02:19 86° 203° (SSW) 19:07:18 436.795
STARS 25 Apr 18:57:39 19:01:28 28° 309° (NW) 19:05:14 437.465
Cosmos 2504 25 Apr 19:00:54 19:07:36 23° 338° (NNW) 19:13:59 435.465 / 435.565
PRISM 25 Apr 19:02:59 19:04:34 12° 81° (E) 19:06:18 437.425
AO-7 25 Apr 19:03:17 19:08:52 18° 285° (WNW) 19:14:09 29.400- 29.500
CUSAT 1 25 Apr 19:04:20 19:08:44 87° 285° (WNW) 19:14:46 437.405
CUTE-I 25 Apr 19:04:35 19:09:50 59° 257° (WSW) 19:15:08 437.470
BRITE-PL 25 Apr 19:08:03 19:11:40 27° 51° (NE) 19:15:30 437.365/2234.400
UWE-3 25 Apr 19:08:27 19:09:36 11° 28° (NNE) 19:10:51 435.000/436.395/437.385
ITUPSAT 1 25 Apr 19:14:50 19:16:49 12° 333° (NNW) 19:18:43 437.325
FUNcube-1 25 Apr 19:18:15 19:19:11 11° 29° (NNE) 19:20:14 145.935
